Time,TemperatureF,DewpointF,PressureIn,WindDirection,WindDirectionDegrees,WindSpeedMPH,WindSpeedGustMPH,Humidity,HourlyPrecipIn,Conditions,Clouds,dailyrainin,SoftwareType,DateUTC
2013-05-31 00:06:00,81.9,51.0,29.73,SSE,161,5.0,-999.0,34,-99.99,,,0.00,weatherlink.com 1.10,2013-05-31 07:06:00,
2013-05-31 00:21:00,81.8,51.0,29.73,South,186,4.0,-999.0,34,-99.99,,,0.00,weatherlink.com 1.10,2013-05-31 07:21:00,
2013-05-31 00:36:00,81.6,51.0,29.73,SSE,155,5.0,-999.0,34,-99.99,,,0.00,weatherlink.com 1.10,2013-05-31 07:36:00,
2013-05-31 00:51:00,81.4,51.0,29.73,SSE,158,0.0,-999.0,35,-99.99,,,0.00,weatherlink.com 1.10,2013-05-31 07:51:00,
2013-05-31 01:06:00,81.2,51.0,29.72,SSE,159,5.0,-999.0,35,-99.99,,,0.00,weatherlink.com 1.10,2013-05-31 08:06:00,
2013-05-31 01:21:00,81.3,50.0,29.72,South,176,1.0,-999.0,34,-99.99,,,0.00,weatherlink.com 1.10,2013-05-31 08:21:00,
2013-05-31 01:36:00,81.2,50.0,29.72,South,188,3.0,-999.0,34,-99.99,,,0.00,weatherlink.com 1.10,2013-05-31 08:36:00,
2013-05-31 01:51:00,81.3,50.0,29.72,South,182,3.0,-999.0,34,-99.99,,,0.00,weatherlink.com 1.10,2013-05-31 08:51:00,
2013-05-31 02:06:00,81.1,51.0,29.72,SSE,168,8.0,-999.0,35,-99.99,,,0.00,weatherlink.com 1.10,2013-05-31 09:06:00,
2013-05-31 02:21:00,80.6,51.0,29.72,South,170,7.0,-999.0,35,-99.99,,,0.00,weatherlink.com 1.10,2013-05-31 09:21:00,
2013-05-31 02:36:00,80.0,51.0,29.72,SSE,167,4.0,-999.0,36,-99.99,,,0.00,weatherlink.com 1.10,2013-05-31 09:36:00,
2013-05-31 02:51:00,79.7,50.0,29.72,SSE,153,7.0,-999.0,36,-99.99,,,0.00,weatherlink.com 1.10,2013-05-31 09:51:00,
2013-05-31 03:06:00,78.9,51.0,29.73,SSE,163,4.0,-999.0,38,-99.99,,,0.00,weatherlink.com 1.10,2013-05-31 10:06:00,
2013-05-31 03:21:00,78.7,51.0,29.73,SSE,163,2.0,-999.0,38,-99.99,,,0.00,weatherlink.com 1.10,2013-05-31 10:21:00,
2013-05-31 03:36:00,78.2,51.0,29.73,SSE,158,4.0,-999.0,39,-99.99,,,0.00,weatherlink.com 1.10,2013-05-31 10:36:00,
2013-05-31 03:51:00,77.6,51.0,29.73,SSE,158,0.0,-999.0,39,-99.99,,,0.00,weatherlink.com 1.10,2013-05-31 10:51:00,
2013-05-31 04:06:00,77.1,51.0,29.73,SSE,158,0.0,-999.0,40,-99.99,,,0.00,weatherlink.com 1.10,2013-05-31 11:06:00,
2013-05-31 04:21:00,77.0,51.0,29.74,SSE,158,6.0,-999.0,40,-99.99,,,0.00,weatherlink.com 1.10,2013-05-31 11:21:00,
2013-05-31 04:36:00,76.7,51.0,29.74,SSE,167,4.0,-999.0,40,-99.99,,,0.00,weatherlink.com 1.10,2013-05-31 11:36:00,
2013-05-31 04:51:00,76.4,51.0,29.74,SSE,162,8.0,-999.0,41,-99.99,,,0.00,weatherlink.com 1.10,2013-05-31 11:51:00,
2013-05-31 05:06:00,75.9,51.0,29.74,SSE,165,2.0,-999.0,42,-99.99,,,0.00,weatherlink.com 1.10,2013-05-31 12:06:00,
2013-05-31 05:21:00,75.4,51.0,29.75,SSE,165,6.0,-999.0,43,-99.99,,,0.00,weatherlink.com 1.10,2013-05-31 12:21:00,
2013-05-31 05:36:00,75.1,51.0,29.75,SSE,155,2.0,-999.0,43,-99.99,,,0.00,weatherlink.com 1.10,2013-05-31 12:36:00,
2013-05-31 05:51:00,74.7,51.0,29.76,SSE,155,0.0,-999.0,44,-99.99,,,0.00,weatherlink.com 1.10,2013-05-31 12:51:00,
2013-05-31 06:06:00,74.5,51.0,29.77,SSE,155,4.0,-999.0,44,-99.99,,,0.00,weatherlink.com 1.10,2013-05-31 13:06:00,
2013-05-31 06:21:00,74.6,51.0,29.78,SSE,155,4.0,-999.0,44,-99.99,,,0.00,weatherlink.com 1.10,2013-05-31 13:21:00,
2013-05-31 06:37:00,75.7,52.0,29.78,SSE,155,1.0,-999.0,43,-99.99,,,0.00,weatherlink.com 1.10,2013-05-31 13:37:00,
2013-05-31 06:52:00,77.0,52.0,29.79,SSE,155,0.0,-999.0,42,-99.99,,,0.00,weatherlink.com 1.10,2013-05-31 13:52:00,
2013-05-31 07:07:00,78.2,52.0,29.80,SSE,155,1.0,-999.0,40,-99.99,,,0.00,weatherlink.com 1.10,2013-05-31 14:07:00,
2013-05-31 07:22:00,79.3,53.0,29.81,SSE,155,0.0,-999.0,40,-99.99,,,0.00,weatherlink.com 1.10,2013-05-31 14:22:00,
2013-05-31 07:36:00,80.0,53.0,29.81,SSE,155,0.0,-999.0,39,-99.99,,,0.00,weatherlink.com 1.10,2013-05-31 14:36:00,
2013-05-31 07:51:00,80.7,53.0,29.81,SSE,155,0.0,-999.0,38,-99.99,,,0.00,weatherlink.com 1.10,2013-05-31 14:51:00,
2013-05-31 08:07:00,82.1,53.0,29.82,SSE,155,0.0,-999.0,36,-99.99,,,0.00,weatherlink.com 1.10,2013-05-31 15:07:00,
2013-05-31 08:22:00,83.8,53.0,29.82,SSE,155,0.0,-999.0,34,-99.99,,,0.00,weatherlink.com 1.10,2013-05-31 15:22:00,
2013-05-31 08:37:00,85.0,51.0,29.82,SSE,155,0.0,-999.0,31,-99.99,,,0.00,weatherlink.com 1.10,2013-05-31 15:37:00,
2013-05-31 08:52:00,86.0,51.0,29.82,SSE,155,0.0,-999.0,30,-99.99,,,0.00,weatherlink.com 1.10,2013-05-31 15:52:00,
2013-05-31 09:07:00,86.7,51.0,29.82,SSE,155,4.0,-999.0,29,-99.99,,,0.00,weatherlink.com 1.10,2013-05-31 16:07:00,
2013-05-31 09:22:00,87.6,51.0,29.82,SSW,206,3.0,-999.0,28,-99.99,,,0.00,weatherlink.com 1.10,2013-05-31 16:22:00,
2013-05-31 09:37:00,88.2,50.0,29.82,SW,227,2.0,-999.0,27,-99.99,,,0.00,weatherlink.com 1.10,2013-05-31 16:37:00,
2013-05-31 09:52:00,88.8,50.0,29.83,SW,234,0.0,-999.0,26,-99.99,,,0.00,weatherlink.com 1.10,2013-05-31 16:52:00,
2013-05-31 10:07:00,89.2,50.0,29.82,SW,236,2.0,-999.0,26,-99.99,,,0.00,weatherlink.com 1.10,2013-05-31 17:07:00,
2013-05-31 10:22:00,89.7,50.0,29.83,WSW,237,1.0,-999.0,25,-99.99,,,0.00,weatherlink.com 1.10,2013-05-31 17:22:00,
2013-05-31 10:37:00,91.0,50.0,29.83,WSW,238,0.0,-999.0,24,-99.99,,,0.00,weatherlink.com 1.10,2013-05-31 17:37:00,
2013-05-31 10:52:00,92.0,48.0,29.83,WSW,238,0.0,-999.0,22,-99.99,,,0.00,weatherlink.com 1.10,2013-05-31 17:52:00,
2013-05-31 11:07:00,92.4,48.0,29.82,WSW,243,1.0,-999.0,22,-99.99,,,0.00,weatherlink.com 1.10,2013-05-31 18:07:00,
2013-05-31 11:22:00,92.9,49.0,29.82,WSW,247,2.0,-999.0,22,-99.99,,,0.00,weatherlink.com 1.10,2013-05-31 18:22:00,
2013-05-31 11:37:00,93.8,48.0,29.81,WSW,246,0.0,-999.0,21,-99.99,,,0.00,weatherlink.com 1.10,2013-05-31 18:37:00,
2013-05-31 11:52:00,94.2,50.0,29.80,WSW,246,2.0,-999.0,22,-99.99,,,0.00,weatherlink.com 1.10,2013-05-31 18:52:00,
2013-05-31 12:07:00,94.4,49.0,29.80,South,174,0.0,-999.0,21,-99.99,,,0.00,weatherlink.com 1.10,2013-05-31 19:07:00,
2013-05-31 12:23:00,94.6,49.0,29.80,South,174,0.0,-999.0,21,-99.99,,,0.00,weatherlink.com 1.10,2013-05-31 19:23:00,
2013-05-31 12:37:00,96.3,49.0,29.79,South,182,3.0,-999.0,20,-99.99,,,0.00,weatherlink.com 1.10,2013-05-31 19:37:00,
2013-05-31 12:52:00,96.4,49.0,29.79,South,188,0.0,-999.0,20,-99.99,,,0.00,weatherlink.com 1.10,2013-05-31 19:52:00,
2013-05-31 13:08:00,97.1,50.0,29.78,SW,217,6.0,-999.0,20,-99.99,,,0.00,weatherlink.com 1.10,2013-05-31 20:08:00,
2013-05-31 13:22:00,97.4,49.0,29.78,SW,222,0.0,-999.0,19,-99.99,,,0.00,weatherlink.com 1.10,2013-05-31 20:22:00,
2013-05-31 13:37:00,98.0,49.0,29.77,SW,225,4.0,-999.0,19,-99.99,,,0.00,weatherlink.com 1.10,2013-05-31 20:37:00,
2013-05-31 13:53:00,98.8,48.0,29.76,WNW,300,0.0,-999.0,18,-99.99,,,0.00,weatherlink.com 1.10,2013-05-31 20:53:00,
2013-05-31 14:08:00,99.4,50.0,29.76,NW,311,4.0,-999.0,19,-99.99,,,0.00,weatherlink.com 1.10,2013-05-31 21:08:00,
2013-05-31 14:22:00,99.1,50.0,29.76,NNW,327,7.0,-999.0,19,-99.99,,,0.00,weatherlink.com 1.10,2013-05-31 21:22:00,
2013-05-31 14:38:00,99.6,51.0,29.75,WNW,294,6.0,-999.0,19,-99.99,,,0.00,weatherlink.com 1.10,2013-05-31 21:38:00,
2013-05-31 14:53:00,100.2,50.0,29.74,West,281,1.0,-999.0,18,-99.99,,,0.00,weatherlink.com 1.10,2013-05-31 21:53:00,
2013-05-31 15:08:00,100.5,50.0,29.74,WNW,282,4.0,-999.0,18,-99.99,,,0.00,weatherlink.com 1.10,2013-05-31 22:08:00,
2013-05-31 15:22:00,100.1,51.0,29.73,WNW,293,1.0,-999.0,19,-99.99,,,0.00,weatherlink.com 1.10,2013-05-31 22:22:00,
2013-05-31 15:37:00,100.3,51.0,29.72,WNW,296,7.0,-999.0,19,-99.99,,,0.00,weatherlink.com 1.10,2013-05-31 22:37:00,
2013-05-31 15:53:00,100.3,50.0,29.71,NW,319,0.0,-999.0,18,-99.99,,,0.00,weatherlink.com 1.10,2013-05-31 22:53:00,
2013-05-31 16:08:00,100.2,50.0,29.72,NW,319,0.0,-999.0,18,-99.99,,,0.00,weatherlink.com 1.10,2013-05-31 23:08:00,
2013-05-31 16:23:00,100.2,50.0,29.71,WNW,296,3.0,-999.0,18,-99.99,,,0.00,weatherlink.com 1.10,2013-05-31 23:23:00,
2013-05-31 16:38:00,100.2,50.0,29.71,WNW,294,2.0,-999.0,18,-99.99,,,0.00,weatherlink.com 1.10,2013-05-31 23:38:00,
2013-05-31 16:53:00,100.4,50.0,29.71,NW,308,1.0,-999.0,18,-99.99,,,0.00,weatherlink.com 1.10,2013-05-31 23:53:00,
2013-05-31 17:07:00,100.3,50.0,29.71,NW,307,2.0,-999.0,18,-99.99,,,0.00,weatherlink.com 1.10,2013-06-01 00:07:00,
2013-05-31 17:23:00,100.4,50.0,29.70,WNW,296,5.0,-999.0,18,-99.99,,,0.00,weatherlink.com 1.10,2013-06-01 00:23:00,
2013-05-31 17:38:00,99.9,49.0,29.70,WNW,303,1.0,-999.0,18,-99.99,,,0.00,weatherlink.com 1.10,2013-06-01 00:38:00,
2013-05-31 17:53:00,99.8,48.0,29.70,WNW,303,2.0,-999.0,17,-99.99,,,0.00,weatherlink.com 1.10,2013-06-01 00:53:00,
2013-05-31 18:08:00,99.6,48.0,29.70,NW,305,3.0,-999.0,17,-99.99,,,0.00,weatherlink.com 1.10,2013-06-01 01:08:00,
2013-05-31 18:22:00,99.0,47.0,29.70,WNW,301,4.0,-999.0,17,-99.99,,,0.00,weatherlink.com 1.10,2013-06-01 01:22:00,
2013-05-31 18:38:00,98.6,45.0,29.70,WNW,300,0.0,-999.0,16,-99.99,,,0.00,weatherlink.com 1.10,2013-06-01 01:38:00,
2013-05-31 18:53:00,98.4,45.0,29.70,WNW,300,0.0,-999.0,16,-99.99,,,0.00,weatherlink.com 1.10,2013-06-01 01:53:00,
2013-05-31 19:08:00,97.9,43.0,29.70,WNW,300,3.0,-999.0,15,-99.99,,,0.00,weatherlink.com 1.10,2013-06-01 02:08:00,
2013-05-31 19:23:00,96.7,42.0,29.70,WNW,300,2.0,-999.0,15,-99.99,,,0.00,weatherlink.com 1.10,2013-06-01 02:23:00,
2013-05-31 19:38:00,95.6,43.0,29.70,WNW,300,0.0,-999.0,16,-99.99,,,0.00,weatherlink.com 1.10,2013-06-01 02:38:00,
2013-05-31 19:53:00,94.5,43.0,29.70,WNW,300,0.0,-999.0,17,-99.99,,,0.00,weatherlink.com 1.10,2013-06-01 02:53:00,
2013-05-31 20:08:00,93.2,42.0,29.71,WNW,300,0.0,-999.0,17,-99.99,,,0.00,weatherlink.com 1.10,2013-06-01 03:08:00,
2013-05-31 20:23:00,91.7,45.0,29.70,WNW,300,0.0,-999.0,20,-99.99,,,0.00,weatherlink.com 1.10,2013-06-01 03:23:00,
2013-05-31 20:38:00,90.9,46.0,29.71,WNW,300,0.0,-999.0,21,-99.99,,,0.00,weatherlink.com 1.10,2013-06-01 03:38:00,
2013-05-31 20:53:00,90.3,47.0,29.71,WNW,300,0.0,-999.0,22,-99.99,,,0.00,weatherlink.com 1.10,2013-06-01 03:53:00,
2013-05-31 21:08:00,89.7,46.0,29.71,WNW,300,0.0,-999.0,22,-99.99,,,0.00,weatherlink.com 1.10,2013-06-01 04:08:00,
2013-05-31 21:23:00,88.9,47.0,29.72,WNW,300,0.0,-999.0,23,-99.99,,,0.00,weatherlink.com 1.10,2013-06-01 04:23:00,
2013-05-31 21:38:00,88.0,47.0,29.72,WNW,300,0.0,-999.0,24,-99.99,,,0.00,weatherlink.com 1.10,2013-06-01 04:38:00,
2013-05-31 21:53:00,87.6,47.0,29.72,WNW,300,0.0,-999.0,24,-99.99,,,0.00,weatherlink.com 1.10,2013-06-01 04:53:00,
2013-05-31 22:08:00,87.7,47.0,29.73,WNW,300,0.0,-999.0,24,-99.99,,,0.00,weatherlink.com 1.10,2013-06-01 05:08:00,
2013-05-31 22:23:00,87.5,47.0,29.73,WNW,300,0.0,-999.0,24,-99.99,,,0.00,weatherlink.com 1.10,2013-06-01 05:23:00,
2013-05-31 22:38:00,87.2,46.0,29.73,WNW,300,0.0,-999.0,24,-99.99,,,0.00,weatherlink.com 1.10,2013-06-01 05:38:00,
2013-05-31 22:53:00,86.7,46.0,29.73,WNW,300,0.0,-999.0,24,-99.99,,,0.00,weatherlink.com 1.10,2013-06-01 05:53:00,
2013-05-31 23:08:00,86.5,46.0,29.73,WNW,300,0.0,-999.0,24,-99.99,,,0.00,weatherlink.com 1.10,2013-06-01 06:08:00,
2013-05-31 23:23:00,86.2,45.0,29.73,West,275,0.0,-999.0,24,-99.99,,,0.00,weatherlink.com 1.10,2013-06-01 06:23:00,
2013-05-31 23:38:00,86.1,46.0,29.73,West,270,2.0,-999.0,25,-99.99,,,0.00,weatherlink.com 1.10,2013-06-01 06:38:00,
2013-05-31 23:53:00,85.6,47.0,29.73,West,270,0.0,-999.0,26,-99.99,,,0.00,weatherlink.com 1.10,2013-06-01 06:53:00,